Other Public Products
Issued by NWS Grand Forks, ND

Home | Current Version | Previous Version | Graphics & Text | Print | Product List | Glossary On
Versions: 1 2 3 4 5 6 7 8 9 10 11 12 13 14 15 16 17 18 19 20 21 22 23 24 25 26 27 28 29 30 31 32 33 34 35 36 37 38 39 40 41 42 43 44 45 46 47 48 49 50
000
FPUS83 KFGF 311210
OPUFGF
PRAIRIE TO PINES WEATHER ROUNDUP
NATIONAL WEATHER SERVICE EASTERN NORTH DAKOTA/GRAND FORKS ND
700 AM CDT MON AUG 31 2015

 **SATELLITE DATA USED TO AUGMENT SKY COVER AT AUTOMATED STATIONS**
 *****  WEATHER ACROSS EASTERN NORTH DAKOTA  *****

CITY           SKY/WX    TMP DP  RH WIND       PRES   REMARKS
GRAND FORKS    MOCLDY    64  61  90 S12       29.65R
6HR MIN TEMP:  64; 6HR MAX TEMP:  72;

GRAND FORKS AF PTCLDY    64  62  93 S9        29.65R
GRAND CITY NWS   N/A     63 N/A N/A S13         N/A
BUXTON         NOT AVBL
DEVILS LAKE    CLOUDY    64  57  77 NE8       29.65F
6HR MIN TEMP:  64; 6HR MAX TEMP:  72;

FARGO          CLEAR     66  60  81 S13G24    29.67R
6HR MIN TEMP:  66; 6HR MAX TEMP:  71;

WAHPETON ARPT  SUNNY     64  55  72 SE13      29.71S
$$

 *****  WEATHER ACROSS CENTRAL AND WESTERN NORTH DAKOTA  *****

CITY           SKY/WX    TMP DP  RH WIND       PRES   REMARKS
JAMESTOWN      MOCLDY    66  63  90 S7        29.68R
6HR MIN TEMP:  66; 6HR MAX TEMP:  70;

BISMARCK       CLOUDY    69  57  65 NW8       29.72R
6HR MIN TEMP:  66; 6HR MAX TEMP:  72;

MINOT          LGT RAIN  64  59  83 NW15G21   29.76R
6HR MIN TEMP:  62; 6HR MAX TEMP:  68; 6HR PCP:  0.04;

MINOT AFB      CLOUDY    64  64  99 NW21G32   29.74R
6HR MIN TEMP:  62; 6HR MAX TEMP:  68; 6HR PCP:  0.09;

GARRISON         N/A     64  60  87 W7        29.76R
6HR MIN TEMP:  62; 6HR MAX TEMP:  69; 6HR PCP:  0.03;

WILLISTON        N/A    N/A N/A N/A MISG      29.81R
DICKINSON      MOCLDY    59  54  83 NW14      29.83R
6HR MIN TEMP:  59; 6HR MAX TEMP:  70; 6HR PCP: TRACE;

HETTINGER      MOCLDY    60  55  83 NW15      29.84R
6HR MIN TEMP:  60; 6HR MAX TEMP:  68;

$$

 *****  OTHER OBSERVATIONS NORTHEAST NORTH DAKOTA  *****

CITY           SKY/WX    TMP DP  RH WIND       PRES   REMARKS
WALHALLA       TSTM      68  68 100 MISG      29.71R
LANGDON        PTSUNNY   64  63  94 SW14G20   29.75R FOG
CAVALIER       CLOUDY    68  66  94 S9        29.64R
GRAFTON        PTSUNNY   64  64 100 S9G20     29.64R FOG
CANDO          NOT AVBL
FORT TOTTEN      N/A     66  64  94 NE3       29.95S
ROLLA          LGT RAIN  64  57  77 NW10      29.73R
RUGBY          FAIR      63  59  88 NW10      29.71R
 ***** THE ABOVE OBSERVATIONS ARE NON NWS ARE NOT QUALITY
        CONTROLLED AND MAY MIS-REPORT RAIN FOR SNOW...
$$

 *****  OTHER OBSERVATIONS SOUTHEAST NORTH DAKOTA *****

CITY           SKY/WX    TMP DP  RH WIND       PRES   REMARKS
COOPERSTOWN    NOT AVBL
VALLEY CITY    FAIR      64  64 100 SW13G21   29.68R
OAKES            N/A     66  66 100 S13       29.68R
GWINNER        FAIR      73  59  60 S23G29    29.68R
SHEYENNE NWR     N/A     69  60  71 S9        29.95S
BUFFALO        NOT AVBL
WYNDMERE         N/A    N/A N/A N/A SE6         N/A
 ***** THE ABOVE OBSERVATIONS ARE NON NWS ARE NOT QUALITY
       CONTROLLED AND MAY MIS-REPORT RAIN FOR SNOW...
$$

  *****  WEATHER ACROSS NORTHERN MINNESOTA  *****

CITY           SKY/WX    TMP DP  RH WIND       PRES   REMARKS
FLAG ISLAND    PTCLDY    68  63  83 S8        29.66S
WARROAD        MOCLDY    64  61  88 S5        29.68S
ROSEAU         MOCLDY    64  59  82 S8        29.66F
HALLOCK        CLOUDY    66  63  88 S10       29.62S
THF RVR FALLS  CLEAR    N/A N/A N/A S8        29.67S
HALSTAD        NOT AVBL
FOSSTON        CLEAR     64  55  72 S9        29.72R
BAUDETTE       PTCLDY    63  59  87 S7        29.70R
6HR MIN TEMP:  63; 6HR MAX TEMP:  69;

WASKISH        CLEAR     64  61  88 S5        29.72S
CROOKSTON      PTCLDY    66  61  82 S12       29.68R
$$
  *****  WEATHER ACROSS CENTRAL AND WEST MINNESOTA  *****

CITY           SKY/WX    TMP DP  RH WIND       PRES   REMARKS
BEMIDJI        CLEAR     64  58  81 S14       29.75S
PARK RAPIDS    PTCLDY    64  59  83 S13G24    29.78S
6HR MIN TEMP:  63; 6HR MAX TEMP:  68;

WADENA         CLEAR     63  61  94 S8        29.80S FOG
DETROIT LAKES  CLEAR     68  57  68 S14       29.75S
MOORHEAD       CLEAR     66  61  82 S16       29.69R
FERGUS FALLS   CLEAR     66  57  72 S16G23    29.73S
ELBOW LAKE     FAIR      64  60  87 SE18      29.77S
6HR MIN TEMP:  63; 6HR MAX TEMP:  66;

MORRIS MN      CLEAR     63  63 100 S13       29.79R FOG
STAPLES        CLEAR     63  61  94 S12       29.82S FOG
WHEATON        CLEAR     63  57  82 SE15      29.75S
$$
  *****  WEATHER ELSEWHERE ACROSS MINNESOTA  *****

CITY           SKY/WX    TMP DP  RH WIND       PRES   REMARKS
DULUTH         MOCLDY    64  62  93 S13       29.89R FOG
6HR MIN TEMP:  64; 6HR MAX TEMP:  67;

INTRNTL FALLS  CLEAR     64  61  90 VRB6      29.74S
6HR MIN TEMP:  64; 6HR MAX TEMP:  69;

ELY            CLEAR     63  57  82 S6        29.85S
CLOQUET        CLOUDY    64  61  88 S8        29.89R
BRAINERD       PTCLDY    63  62  97 S9        29.85S FOG
6HR MIN TEMP:  63; 6HR MAX TEMP:  67;

HIBBING        FOG       58  57  97 SE6       29.86R VSB 1/4
6HR MIN TEMP:  58; 6HR MAX TEMP:  65;

ALEXANDRIA     CLEAR     65  62  90 S13       29.84S
6HR MIN TEMP:  64; 6HR MAX TEMP:  67;

SAINT CLOUD    PTCLDY    64  64 100 S9        29.88S FOG
6HR MIN TEMP:  64; 6HR MAX TEMP:  66;

MINNEAPOLIS    CLOUDY    66  64  93 SE6       29.94R FOG
6HR MIN TEMP:  63; 6HR MAX TEMP:  68;

$$

  *****  WEATHER ACROSS SOUTH DAKOTA  *****

CITY           SKY/WX    TMP DP  RH WIND       PRES   REMARKS
SIOUX FALLS    PTCLDY    65  63  93 S12       29.89S
6HR MIN TEMP:  64; 6HR MAX TEMP:  67;

BROOKINGS      CLEAR     64  61  88 S12       29.89R
WATERTOWN      CLEAR     64  61  90 S14       29.80F
6HR MIN TEMP:  64; 6HR MAX TEMP:  66;

HURON          CLEAR     66  63  90 S13G23    29.76S
6HR MIN TEMP:  66; 6HR MAX TEMP:  67;

SISSETON         N/A     73  59  61 SW28G37   29.68S
ABERDEEN       CLEAR     67  62  84 S16       29.69S
6HR MIN TEMP:  66; 6HR MAX TEMP:  69;

MITCHELL       CLEAR     65  64  97 S9        29.81F
PIERRE         MOCLDY    70  51  51 SE7       29.68R
6HR MIN TEMP:  69; 6HR MAX TEMP:  74;

MOBRIDGE       MOCLDY    65  60  84 NW5       29.67R
RAPID CITY     CLOUDY    71  50  47 W3        29.85R
6HR MIN TEMP:  67; 6HR MAX TEMP:  78;

$$

  *****  SOME WEATHER IN NEARBY STATES *****

CITY           SKY/WX    TMP DP  RH WIND       PRES   REMARKS
GLASGOW MT     CLEAR     51  45  79 W7        29.84R
6HR MIN TEMP:  51; 6HR MAX TEMP:  62; 6HR PCP:  0.04;

GREAT FALLS MT PTCLDY    52  32  46 SW15      29.91F
6HR MIN TEMP:  51; 6HR MAX TEMP:  55;

CHEYENNE WY    CLOUDY    67  46  47 W20       30.09F
6HR MIN TEMP:  63; 6HR MAX TEMP:  73; 6HR PCP: TRACE;

SCOTTSBLUFF NE MOCLDY    71  52  50 W12       29.96R
6HR MIN TEMP:  66; 6HR MAX TEMP:  80; 6HR PCP: TRACE;

OMAHA NE       CLEAR     65  65 100 S6        29.95R FOG
6HR MIN TEMP:  65; 6HR MAX TEMP:  68;

DES MOINES IA  PTCLDY    68  65  90 SE7       29.98R
6HR MIN TEMP:  68; 6HR MAX TEMP:  70;

DAVENPORT IA   PTCLDY    63  61  93 SE5       30.05R FOG
6HR MIN TEMP:  61; 6HR MAX TEMP:  63;

CHICAGO IL     FOG       62  62 100 CALM      30.06R VSB 1/8
6HR MIN TEMP:  60; 6HR MAX TEMP:  64;

EAU CLAIRE WI  CLOUDY    63  61  93 S6        29.98R FOG
6HR MIN TEMP:  57; 6HR MAX TEMP:  63;

LA CROSSE WI   CLOUDY    65  64  97 S8        30.01R FOG
6HR MIN TEMP:  62; 6HR MAX TEMP:  66;

$$

  *****  SOME NATIONAL WEATHER *****

CITY           SKY/WX    TMP DP  RH WIND       PRES   REMARKS
LA GUARDIA NY  PTSUNNY   78  66  66 W8        30.03R
6HR MIN TEMP:  77; 6HR MAX TEMP:  80;




USA.gov is the U.S. government's official web portal to all federal, state and local government web resources and services.